Year,Month,Day,Hour,Minute,Value (Times are PST for temperature in C)
2015,06,30,00,00,19.20
2015,06,30,00,01,19.20
2015,06,30,00,02,19.20
2015,06,30,00,03,19.20
2015,06,30,00,04,19.20
2015,06,30,00,05,19.20
2015,06,30,00,06,19.20
2015,06,30,00,07,19.20
2015,06,30,00,08,19.20
2015,06,30,00,09,19.10
2015,06,30,00,10,19.10
2015,06,30,00,11,19.10
2015,06,30,00,12,19.10
2015,06,30,00,13,19.10
2015,06,30,00,14,19.10
2015,06,30,00,15,19.00
2015,06,30,00,16,19.00
2015,06,30,00,17,19.00
2015,06,30,00,18,18.90
2015,06,30,00,19,18.90
2015,06,30,00,20,18.90
2015,06,30,00,21,18.90
2015,06,30,00,22,18.80
2015,06,30,00,23,18.80
2015,06,30,00,24,18.80
2015,06,30,00,25,18.80
2015,06,30,00,26,18.80
2015,06,30,00,27,18.70
2015,06,30,00,28,18.70
2015,06,30,00,29,18.70
2015,06,30,00,30,18.70
2015,06,30,00,31,18.70
2015,06,30,00,32,18.70
2015,06,30,00,33,18.70
2015,06,30,00,34,18.60
2015,06,30,00,35,18.60
2015,06,30,00,36,18.60
2015,06,30,00,37,18.60
2015,06,30,00,38,18.50
2015,06,30,00,39,18.50
2015,06,30,00,40,18.40
2015,06,30,00,41,18.40
2015,06,30,00,42,18.40
2015,06,30,00,43,18.40
2015,06,30,00,44,18.40
2015,06,30,00,45,18.30
2015,06,30,00,46,18.30
2015,06,30,00,47,18.30
2015,06,30,00,48,18.30
2015,06,30,00,49,18.30
2015,06,30,00,50,18.30
2015,06,30,00,51,18.30
2015,06,30,00,52,18.30
2015,06,30,00,53,18.30
2015,06,30,00,54,18.30
2015,06,30,00,55,18.30
2015,06,30,00,56,18.30
2015,06,30,00,57,18.30
2015,06,30,00,58,18.30
2015,06,30,00,59,18.30
2015,06,30,01,00,18.30
2015,06,30,01,01,18.30
2015,06,30,01,02,18.30
2015,06,30,01,03,18.30
2015,06,30,01,04,18.30
2015,06,30,01,05,18.30
2015,06,30,01,06,18.30
2015,06,30,01,07,18.30
2015,06,30,01,08,18.30
2015,06,30,01,09,18.30
2015,06,30,01,10,18.30
2015,06,30,01,11,18.30
2015,06,30,01,12,18.30
2015,06,30,01,13,18.40
2015,06,30,01,14,18.40
2015,06,30,01,15,18.40
2015,06,30,01,16,18.40
2015,06,30,01,17,18.40
2015,06,30,01,18,18.40
2015,06,30,01,19,18.40
2015,06,30,01,20,18.40
2015,06,30,01,21,18.40
2015,06,30,01,22,18.40
2015,06,30,01,23,18.30
2015,06,30,01,24,18.30
2015,06,30,01,25,18.30
2015,06,30,01,26,18.30
2015,06,30,01,27,18.30
2015,06,30,01,28,18.30
2015,06,30,01,29,18.30
2015,06,30,01,30,18.30
2015,06,30,01,31,18.30
2015,06,30,01,32,18.20
2015,06,30,01,33,18.20
2015,06,30,01,34,18.20
2015,06,30,01,35,18.20
2015,06,30,01,36,18.20
2015,06,30,01,37,18.20
2015,06,30,01,38,18.10
2015,06,30,01,39,18.10
2015,06,30,01,40,18.10
2015,06,30,01,41,18.10
2015,06,30,01,42,18.10
2015,06,30,01,43,18.10
2015,06,30,01,44,18.10
2015,06,30,01,49,18.10
2015,06,30,01,50,18.20
2015,06,30,01,51,18.20
2015,06,30,01,52,18.20
2015,06,30,01,53,18.20
2015,06,30,01,54,18.20
2015,06,30,01,55,18.20
2015,06,30,01,56,18.30
2015,06,30,01,57,18.30
2015,06,30,01,58,18.40
2015,06,30,01,59,18.40
2015,06,30,02,00,18.40
2015,06,30,02,01,18.40
2015,06,30,02,02,18.50
2015,06,30,02,03,18.50
2015,06,30,02,04,18.50
2015,06,30,02,05,18.50
2015,06,30,02,06,18.60
2015,06,30,02,07,18.70
2015,06,30,02,08,18.70
2015,06,30,02,09,18.70
2015,06,30,02,10,18.80
2015,06,30,02,11,18.80
2015,06,30,02,12,18.80
2015,06,30,02,13,18.80
2015,06,30,02,14,18.80
2015,06,30,02,15,18.80
2015,06,30,02,16,18.80
2015,06,30,02,17,18.80
2015,06,30,02,18,18.80
2015,06,30,02,19,18.80
2015,06,30,02,20,18.80
2015,06,30,02,21,18.80
2015,06,30,02,22,18.80
2015,06,30,02,23,18.80
2015,06,30,02,24,18.80
2015,06,30,02,25,18.80
2015,06,30,02,26,18.80
2015,06,30,02,27,18.80
2015,06,30,02,28,18.80
2015,06,30,02,29,18.80
2015,06,30,02,30,18.70
2015,06,30,02,31,18.70
2015,06,30,02,32,18.70
2015,06,30,02,33,18.70
2015,06,30,02,34,18.70
2015,06,30,02,35,18.70
2015,06,30,02,36,18.70
2015,06,30,02,37,18.60
2015,06,30,02,38,18.60
2015,06,30,02,39,18.60
2015,06,30,02,40,18.60
2015,06,30,02,41,18.60
2015,06,30,02,42,18.50
2015,06,30,02,43,18.50
2015,06,30,02,44,18.50
2015,06,30,02,45,18.40
2015,06,30,02,46,18.40
2015,06,30,02,47,18.40
2015,06,30,02,48,18.40
2015,06,30,02,49,18.30
2015,06,30,02,50,18.30
2015,06,30,02,51,18.30
2015,06,30,02,52,18.30
2015,06,30,02,53,18.30
2015,06,30,02,54,18.20
2015,06,30,02,55,18.20
2015,06,30,02,56,18.20
2015,06,30,02,57,18.20
2015,06,30,02,58,18.20
2015,06,30,02,59,18.20
2015,06,30,03,00,18.20
2015,06,30,03,01,18.20
2015,06,30,03,02,18.10
2015,06,30,03,03,18.20
2015,06,30,03,04,18.20
2015,06,30,03,05,18.20
2015,06,30,03,06,18.10
2015,06,30,03,07,18.10
2015,06,30,03,08,18.10
2015,06,30,03,09,18.10
2015,06,30,03,10,18.10
2015,06,30,03,11,18.10
2015,06,30,03,12,18.00
2015,06,30,03,13,18.00
2015,06,30,03,14,18.00
2015,06,30,03,15,18.00
2015,06,30,03,16,18.00
2015,06,30,03,17,18.00
2015,06,30,03,18,18.00
2015,06,30,03,19,18.00
2015,06,30,03,20,18.00
2015,06,30,03,21,18.00
2015,06,30,03,22,17.90
2015,06,30,03,23,17.90
2015,06,30,03,24,17.90
2015,06,30,03,25,17.90
2015,06,30,03,26,17.90
2015,06,30,03,27,17.90
2015,06,30,03,28,17.90
2015,06,30,03,29,17.90
2015,06,30,03,30,17.90
2015,06,30,03,31,17.80
2015,06,30,03,32,17.80
2015,06,30,03,33,17.80
2015,06,30,03,34,17.80
2015,06,30,03,35,17.80
2015,06,30,03,36,17.80
2015,06,30,03,37,17.80
2015,06,30,03,38,17.80
2015,06,30,03,39,17.80
2015,06,30,03,40,17.80
2015,06,30,03,41,17.80
2015,06,30,03,42,17.80
2015,06,30,03,43,17.80
2015,06,30,03,44,17.80
2015,06,30,03,45,17.80
2015,06,30,03,46,17.80
2015,06,30,03,47,17.80
2015,06,30,03,48,17.70
2015,06,30,03,49,17.70
2015,06,30,03,50,17.70
2015,06,30,03,51,17.70
2015,06,30,03,52,17.70
2015,06,30,03,53,17.70
2015,06,30,03,54,17.70
2015,06,30,03,55,17.70
2015,06,30,03,56,17.60
2015,06,30,03,57,17.60
2015,06,30,03,58,17.60
2015,06,30,03,59,17.60
2015,06,30,04,00,17.60
2015,06,30,04,01,17.60
2015,06,30,04,02,17.60
2015,06,30,04,03,17.60
2015,06,30,04,04,17.60
2015,06,30,04,05,17.60
2015,06,30,04,06,17.60
2015,06,30,04,07,17.60
2015,06,30,04,08,17.60
2015,06,30,04,09,17.60
2015,06,30,04,10,17.60
2015,06,30,04,11,17.60
2015,06,30,04,12,17.60
2015,06,30,04,13,17.60
2015,06,30,04,14,17.60
2015,06,30,04,15,17.60
2015,06,30,04,16,17.60
2015,06,30,04,17,17.60
2015,06,30,04,18,17.60
2015,06,30,04,19,17.50
2015,06,30,04,20,17.50
2015,06,30,04,21,17.40
2015,06,30,04,22,17.40
2015,06,30,04,23,17.40
2015,06,30,04,24,17.40
2015,06,30,04,25,17.40
2015,06,30,04,26,17.40
2015,06,30,04,27,17.40
2015,06,30,04,28,17.40
2015,06,30,04,29,17.40
2015,06,30,04,30,17.40
2015,06,30,04,31,17.50
2015,06,30,04,32,17.50
2015,06,30,04,33,17.50
2015,06,30,04,34,17.40
2015,06,30,04,35,17.40
2015,06,30,04,36,17.40
2015,06,30,04,37,17.40
2015,06,30,04,38,17.40
2015,06,30,04,39,17.40
2015,06,30,04,40,17.30
2015,06,30,04,41,17.40
2015,06,30,04,42,17.40
2015,06,30,04,43,17.40
2015,06,30,04,44,17.40
2015,06,30,04,45,17.40
2015,06,30,04,46,17.40
2015,06,30,04,47,17.40
2015,06,30,04,48,17.40
2015,06,30,04,49,17.40
2015,06,30,04,50,17.30
2015,06,30,04,51,17.30
2015,06,30,04,52,17.30
2015,06,30,04,53,17.30
2015,06,30,04,54,17.30
2015,06,30,04,55,17.30
2015,06,30,04,56,17.30
2015,06,30,04,57,17.30
2015,06,30,04,58,17.30
2015,06,30,04,59,17.30
2015,06,30,05,00,17.30
2015,06,30,05,01,17.30
2015,06,30,05,02,17.20
2015,06,30,05,03,17.20
2015,06,30,05,04,17.20
2015,06,30,05,05,17.20
2015,06,30,05,06,17.20
2015,06,30,05,07,17.20
2015,06,30,05,08,17.10
2015,06,30,05,09,17.10
2015,06,30,05,10,17.10
2015,06,30,05,11,17.10
2015,06,30,05,12,17.00
2015,06,30,05,13,17.00
2015,06,30,05,14,17.00
2015,06,30,05,15,16.90
2015,06,30,05,16,16.90
2015,06,30,05,17,16.90
2015,06,30,05,18,16.90
2015,06,30,05,19,16.90
2015,06,30,05,20,16.90
2015,06,30,05,21,16.90
2015,06,30,05,22,16.90
2015,06,30,05,23,16.90
2015,06,30,05,24,16.90
2015,06,30,05,25,16.90
2015,06,30,05,26,16.90
2015,06,30,05,27,16.90
2015,06,30,05,28,16.90
2015,06,30,05,29,16.80
2015,06,30,05,30,16.90
2015,06,30,05,31,16.90
2015,06,30,05,32,16.90
2015,06,30,05,33,16.90
2015,06,30,05,34,16.90
2015,06,30,05,35,17.00
2015,06,30,05,36,17.00
2015,06,30,05,37,17.00
2015,06,30,05,38,16.90
2015,06,30,05,39,16.90
2015,06,30,05,40,17.00
2015,06,30,05,41,17.00
2015,06,30,05,42,17.00
2015,06,30,05,43,17.10
2015,06,30,05,44,17.10
2015,06,30,05,45,17.10
2015,06,30,05,46,17.10
2015,06,30,05,47,17.10
2015,06,30,05,48,17.10
2015,06,30,05,49,17.10
2015,06,30,05,50,17.10
2015,06,30,05,51,17.10
2015,06,30,05,52,17.10
2015,06,30,05,53,17.10
2015,06,30,05,54,17.10
2015,06,30,05,55,17.10
2015,06,30,05,56,17.10
2015,06,30,05,57,17.10
2015,06,30,05,58,17.10
2015,06,30,05,59,17.10
2015,06,30,06,00,17.10
2015,06,30,06,01,17.10
2015,06,30,06,02,17.10
2015,06,30,06,03,17.10
2015,06,30,06,04,17.10
2015,06,30,06,05,17.10
2015,06,30,06,06,17.10
2015,06,30,06,07,17.10
2015,06,30,06,08,17.10
2015,06,30,06,09,17.10
2015,06,30,06,10,17.10
2015,06,30,06,11,17.10
2015,06,30,06,12,17.10
2015,06,30,06,13,17.10
2015,06,30,06,14,17.10
2015,06,30,06,15,17.10
2015,06,30,06,16,17.00
2015,06,30,06,17,17.00
2015,06,30,06,18,17.00
2015,06,30,06,19,16.90
2015,06,30,06,20,16.90
2015,06,30,06,21,16.90
2015,06,30,06,22,16.90
2015,06,30,06,23,16.90
2015,06,30,06,24,16.90
2015,06,30,06,25,16.90
2015,06,30,06,26,16.90
2015,06,30,06,27,16.90
2015,06,30,06,28,16.90
2015,06,30,06,29,16.90
2015,06,30,06,30,16.90
2015,06,30,06,31,17.00
2015,06,30,06,32,17.00
2015,06,30,06,33,17.00
2015,06,30,06,34,17.10
2015,06,30,06,35,17.10
2015,06,30,06,36,17.10
2015,06,30,06,37,17.20
2015,06,30,06,38,17.20
2015,06,30,06,39,17.20
2015,06,30,06,40,17.30
2015,06,30,06,41,17.40
2015,06,30,06,42,17.50
2015,06,30,06,43,17.60
2015,06,30,06,44,17.60
2015,06,30,06,45,17.70
2015,06,30,06,46,17.80
2015,06,30,06,47,17.90
2015,06,30,06,48,18.00
2015,06,30,06,49,18.10
2015,06,30,06,50,18.20
2015,06,30,06,51,18.30
2015,06,30,06,52,18.30
2015,06,30,06,53,18.40
2015,06,30,06,54,18.50
2015,06,30,06,55,18.60
2015,06,30,06,56,18.70
2015,06,30,06,57,18.70
2015,06,30,06,58,18.80
2015,06,30,06,59,18.90
2015,06,30,07,00,18.90
2015,06,30,07,01,19.00
2015,06,30,07,02,19.10
2015,06,30,07,03,19.10
2015,06,30,07,04,19.20
2015,06,30,07,05,19.20
2015,06,30,07,06,19.30
2015,06,30,07,07,19.30
2015,06,30,07,08,19.30
2015,06,30,07,09,19.40
2015,06,30,07,10,19.40
2015,06,30,07,11,19.40
2015,06,30,07,12,19.40
2015,06,30,07,13,19.40
2015,06,30,07,14,19.50
2015,06,30,07,15,19.50
2015,06,30,07,16,19.50
2015,06,30,07,17,19.50
2015,06,30,07,18,19.50
2015,06,30,07,19,19.60
2015,06,30,07,20,19.60
2015,06,30,07,21,19.50
2015,06,30,07,22,19.50
2015,06,30,07,23,19.50
2015,06,30,07,24,19.50
2015,06,30,07,25,19.50
2015,06,30,07,26,19.50
2015,06,30,07,27,19.50
2015,06,30,07,28,19.50
2015,06,30,07,29,19.50
2015,06,30,07,30,19.50
2015,06,30,07,31,19.50
2015,06,30,07,32,19.50
2015,06,30,07,33,19.50
2015,06,30,07,34,19.50
2015,06,30,07,35,19.50
2015,06,30,07,36,19.50
2015,06,30,07,37,19.50
2015,06,30,07,38,19.60
2015,06,30,07,39,19.60
2015,06,30,07,40,19.60
2015,06,30,07,41,19.60
2015,06,30,07,42,19.50
2015,06,30,07,43,19.50
2015,06,30,07,44,19.50
2015,06,30,07,45,19.50
2015,06,30,07,46,19.50
2015,06,30,07,47,19.50
2015,06,30,07,48,19.50
2015,06,30,07,49,19.40
2015,06,30,07,50,19.40
2015,06,30,07,51,19.40
2015,06,30,07,52,19.40
2015,06,30,07,53,19.40
2015,06,30,07,54,19.40
2015,06,30,07,55,19.40
2015,06,30,07,56,19.40
2015,06,30,07,57,19.40
2015,06,30,07,58,19.40
2015,06,30,07,59,19.40
2015,06,30,08,00,19.40
2015,06,30,08,01,19.40
2015,06,30,08,02,19.40
2015,06,30,08,03,19.40
2015,06,30,08,04,19.40
2015,06,30,08,05,19.40
2015,06,30,08,06,19.40
2015,06,30,08,07,19.40
2015,06,30,08,08,19.30
2015,06,30,08,09,19.30
2015,06,30,08,10,19.30
2015,06,30,08,11,19.30
2015,06,30,08,12,19.30
2015,06,30,08,13,19.30
2015,06,30,08,14,19.30
2015,06,30,08,15,19.30
2015,06,30,08,16,19.20
2015,06,30,08,17,19.20
2015,06,30,08,18,19.20
2015,06,30,08,19,19.20
2015,06,30,08,20,19.20
2015,06,30,08,21,19.20
2015,06,30,08,22,19.20
2015,06,30,08,23,19.20
2015,06,30,08,24,19.20
2015,06,30,08,25,19.20
2015,06,30,08,26,19.20
2015,06,30,08,27,19.30
2015,06,30,08,28,19.30
2015,06,30,08,29,19.30
2015,06,30,08,30,19.30
2015,06,30,08,31,19.30
2015,06,30,08,32,19.30
2015,06,30,08,33,19.30
2015,06,30,08,34,19.30
2015,06,30,08,35,19.30
2015,06,30,08,36,19.30
2015,06,30,08,37,19.30
2015,06,30,08,38,19.40
2015,06,30,08,39,19.40
2015,06,30,08,40,19.40
2015,06,30,08,41,19.50
2015,06,30,08,42,19.50
2015,06,30,08,43,19.60
2015,06,30,08,44,19.60
2015,06,30,08,45,19.60
2015,06,30,08,46,19.60
2015,06,30,08,47,19.60
2015,06,30,08,48,19.60
2015,06,30,08,49,19.60
2015,06,30,08,50,19.60
2015,06,30,08,51,19.70
2015,06,30,08,52,19.70
2015,06,30,08,53,19.70
2015,06,30,08,54,19.70
2015,06,30,08,55,19.80
2015,06,30,08,56,19.80
2015,06,30,08,57,19.80
2015,06,30,08,58,19.80
2015,06,30,08,59,19.90
2015,06,30,09,00,19.90
2015,06,30,09,01,19.90
2015,06,30,09,02,20.00
2015,06,30,09,03,20.00
2015,06,30,09,04,20.00
2015,06,30,09,05,20.00
2015,06,30,09,06,20.00
2015,06,30,09,07,20.00
2015,06,30,09,08,20.00
2015,06,30,09,09,20.00
2015,06,30,09,10,20.00
2015,06,30,09,11,20.00
2015,06,30,09,12,20.00
2015,06,30,09,13,20.10
2015,06,30,09,14,20.10
2015,06,30,09,15,20.20
2015,06,30,09,16,20.20
2015,06,30,09,17,20.30
2015,06,30,09,18,20.30
2015,06,30,09,19,20.30
2015,06,30,09,20,20.40
2015,06,30,09,21,20.40
2015,06,30,09,22,20.40
2015,06,30,09,23,20.40
2015,06,30,09,24,20.50
2015,06,30,09,25,20.50
2015,06,30,09,26,20.50
2015,06,30,09,27,20.60
2015,06,30,09,28,20.60
2015,06,30,09,29,20.70
2015,06,30,09,30,20.80
2015,06,30,09,31,20.80
2015,06,30,09,32,20.90
2015,06,30,09,33,20.90
2015,06,30,09,34,21.00
2015,06,30,09,35,20.90
2015,06,30,09,36,20.90
2015,06,30,09,37,20.90
2015,06,30,09,38,21.00
2015,06,30,09,39,20.90
2015,06,30,09,40,21.00
2015,06,30,09,41,21.00
2015,06,30,09,42,21.00
2015,06,30,09,43,21.00
2015,06,30,09,44,21.10
2015,06,30,09,45,21.10
2015,06,30,09,46,21.10
2015,06,30,09,47,21.10
2015,06,30,09,48,21.20
2015,06,30,09,49,21.20
2015,06,30,09,50,21.20
2015,06,30,09,51,21.30
2015,06,30,09,52,21.30
2015,06,30,09,53,21.40
2015,06,30,09,54,21.40
2015,06,30,09,55,21.40
2015,06,30,09,56,21.50
2015,06,30,09,57,21.60
2015,06,30,09,58,21.60
2015,06,30,09,59,21.70
2015,06,30,10,00,21.70
2015,06,30,10,01,21.70
2015,06,30,10,02,21.70
2015,06,30,10,03,21.70
2015,06,30,10,04,21.80
2015,06,30,10,05,21.80
2015,06,30,10,06,21.90
2015,06,30,10,07,21.90
2015,06,30,10,08,22.10
2015,06,30,10,09,22.20
2015,06,30,10,10,22.20
2015,06,30,10,11,22.30
2015,06,30,10,12,22.30
2015,06,30,10,13,22.40
2015,06,30,10,14,22.40
2015,06,30,10,15,22.40
2015,06,30,10,16,22.30
2015,06,30,10,17,22.30
2015,06,30,10,18,22.40
2015,06,30,10,19,22.40
2015,06,30,10,20,22.40
2015,06,30,10,21,22.40
2015,06,30,10,22,22.40
2015,06,30,10,23,22.40
2015,06,30,10,24,22.50
2015,06,30,10,25,22.60
2015,06,30,10,26,22.60
2015,06,30,10,27,22.50
2015,06,30,10,28,22.60
2015,06,30,10,29,22.60
2015,06,30,10,30,22.60
2015,06,30,10,31,22.60
2015,06,30,10,32,22.60
2015,06,30,10,33,22.60
2015,06,30,10,34,22.60
2015,06,30,10,35,22.60
2015,06,30,10,36,22.60
2015,06,30,10,37,22.70
2015,06,30,10,38,22.70
2015,06,30,10,39,22.70
2015,06,30,10,40,22.70
2015,06,30,10,41,22.80
2015,06,30,10,42,22.80
2015,06,30,10,43,22.80
2015,06,30,10,44,22.90
2015,06,30,10,45,23.00
2015,06,30,10,46,23.00
2015,06,30,10,47,22.90
2015,06,30,10,48,22.90
2015,06,30,10,49,22.90
2015,06,30,10,50,22.90
2015,06,30,10,51,22.90
2015,06,30,10,52,22.90
2015,06,30,10,53,22.90
2015,06,30,10,54,23.00
2015,06,30,10,55,23.00
2015,06,30,10,56,23.00
2015,06,30,10,57,23.10
2015,06,30,10,58,23.00
2015,06,30,10,59,23.10
2015,06,30,11,00,23.10
2015,06,30,11,01,23.10
2015,06,30,11,02,23.10
2015,06,30,11,03,23.10
2015,06,30,11,04,23.10
2015,06,30,11,05,23.20
2015,06,30,11,06,23.20
2015,06,30,11,07,23.20
2015,06,30,11,08,23.30
2015,06,30,11,09,23.40
2015,06,30,11,10,23.40
2015,06,30,11,11,23.40
2015,06,30,11,12,23.40
2015,06,30,11,13,23.40
2015,06,30,11,14,23.40
2015,06,30,11,15,23.40
2015,06,30,11,16,23.40
2015,06,30,11,17,23.30
2015,06,30,11,18,23.20
2015,06,30,11,19,23.20
2015,06,30,11,20,23.20
2015,06,30,11,21,23.20
2015,06,30,11,22,23.20
2015,06,30,11,23,23.20
2015,06,30,11,24,23.20
2015,06,30,11,25,23.20
2015,06,30,11,26,23.10
2015,06,30,11,27,23.10
2015,06,30,11,28,23.00
2015,06,30,11,29,23.00
2015,06,30,11,30,23.00
2015,06,30,11,31,23.10
2015,06,30,11,32,23.10
2015,06,30,11,33,23.10
2015,06,30,11,34,23.20
2015,06,30,11,35,23.20
2015,06,30,11,36,23.20
2015,06,30,11,37,23.30
2015,06,30,11,38,23.30
2015,06,30,11,39,23.40
2015,06,30,11,40,23.50
2015,06,30,11,41,23.60
2015,06,30,11,42,23.70
2015,06,30,11,43,23.70
2015,06,30,11,44,23.80
2015,06,30,11,45,24.00
2015,06,30,11,46,24.10
2015,06,30,11,47,24.10
2015,06,30,11,48,24.20
2015,06,30,11,49,24.40
2015,06,30,11,50,24.50
2015,06,30,11,51,24.60
2015,06,30,11,52,24.70
2015,06,30,11,53,24.80
2015,06,30,11,54,24.80
2015,06,30,11,55,24.90
2015,06,30,11,56,25.00
2015,06,30,11,57,25.00
2015,06,30,11,58,25.00
2015,06,30,11,59,25.10
2015,06,30,12,00,25.10
2015,06,30,12,01,25.10
2015,06,30,12,02,25.00
2015,06,30,12,03,25.00
2015,06,30,12,04,25.00
2015,06,30,12,05,24.90
2015,06,30,12,06,24.90
2015,06,30,12,07,24.90
2015,06,30,12,08,24.90
2015,06,30,12,09,24.80
2015,06,30,12,10,24.80
2015,06,30,12,11,24.70
2015,06,30,12,12,24.70
2015,06,30,12,13,24.70
2015,06,30,12,14,24.80
2015,06,30,12,15,24.80
2015,06,30,12,16,24.80
2015,06,30,12,17,24.90
2015,06,30,12,18,24.90
2015,06,30,12,19,24.90
2015,06,30,12,20,25.00
2015,06,30,12,21,25.10
2015,06,30,12,22,25.10
2015,06,30,12,23,25.20
2015,06,30,12,24,25.20
2015,06,30,12,25,25.20
2015,06,30,12,26,25.20
2015,06,30,12,27,25.10
2015,06,30,12,28,25.10
2015,06,30,12,29,25.00
2015,06,30,12,30,25.00
2015,06,30,12,31,25.00
2015,06,30,12,32,25.00
2015,06,30,12,33,25.00
2015,06,30,12,34,25.00
2015,06,30,12,35,25.00
2015,06,30,12,36,25.00
2015,06,30,12,37,25.00
2015,06,30,12,38,25.00
2015,06,30,12,39,25.00
2015,06,30,12,40,24.90
2015,06,30,12,41,24.90
2015,06,30,12,42,25.00
2015,06,30,12,43,25.10
2015,06,30,12,44,25.10
2015,06,30,12,45,25.20
2015,06,30,12,46,25.30
2015,06,30,12,47,25.40
2015,06,30,12,48,25.50
2015,06,30,12,49,25.60
2015,06,30,12,50,25.70
2015,06,30,12,51,25.70
2015,06,30,12,52,25.80
2015,06,30,12,53,25.80
2015,06,30,12,54,25.70
2015,06,30,12,55,25.70
2015,06,30,12,56,25.60
2015,06,30,12,57,25.70
2015,06,30,12,58,25.70
2015,06,30,12,59,25.70
2015,06,30,13,00,25.70
2015,06,30,13,01,25.70
2015,06,30,13,02,25.70
2015,06,30,13,03,25.60
2015,06,30,13,04,25.50
2015,06,30,13,05,25.40
2015,06,30,13,06,25.30
2015,06,30,13,07,25.30
2015,06,30,13,08,25.20
2015,06,30,13,09,25.20
2015,06,30,13,10,25.20
2015,06,30,13,11,25.30
2015,06,30,13,12,25.30
2015,06,30,13,13,25.40
2015,06,30,13,14,25.40
2015,06,30,13,15,25.50
2015,06,30,13,16,25.60
2015,06,30,13,17,25.70
2015,06,30,13,18,25.80
2015,06,30,13,19,25.80
2015,06,30,13,20,25.90
2015,06,30,13,21,25.80
2015,06,30,13,22,25.70
2015,06,30,13,23,25.60
2015,06,30,13,24,25.80
2015,06,30,13,25,25.90
2015,06,30,13,26,26.00
2015,06,30,13,27,26.10
2015,06,30,13,28,26.20
2015,06,30,13,29,26.30
2015,06,30,13,30,26.40
2015,06,30,13,31,26.40
2015,06,30,13,32,26.50
2015,06,30,13,33,26.50
2015,06,30,13,34,26.50
2015,06,30,13,35,26.50
2015,06,30,13,36,26.50
2015,06,30,13,37,26.50
2015,06,30,13,38,26.50
2015,06,30,13,39,26.60
2015,06,30,13,40,26.60
2015,06,30,13,41,26.60
2015,06,30,13,42,26.50
2015,06,30,13,43,26.60
2015,06,30,13,44,26.60
2015,06,30,13,45,26.60
2015,06,30,13,46,26.70
2015,06,30,13,47,26.70
2015,06,30,13,48,26.60
2015,06,30,13,49,26.70
2015,06,30,13,50,26.70
2015,06,30,13,51,26.70
2015,06,30,13,52,26.60
2015,06,30,13,53,26.60
2015,06,30,13,54,26.60
2015,06,30,13,55,26.40
2015,06,30,13,56,26.30
2015,06,30,13,57,26.20
2015,06,30,13,58,26.10
2015,06,30,13,59,26.10
2015,06,30,14,00,26.00
2015,06,30,14,01,25.90
2015,06,30,14,02,25.90
2015,06,30,14,03,25.90
2015,06,30,14,04,26.00
2015,06,30,14,05,26.00
2015,06,30,14,06,26.00
2015,06,30,14,07,25.90
2015,06,30,14,08,25.90
2015,06,30,14,09,25.90
2015,06,30,14,10,25.80
2015,06,30,14,11,25.80
2015,06,30,14,12,25.80
2015,06,30,14,13,25.90
2015,06,30,14,14,25.90
2015,06,30,14,15,25.90
2015,06,30,14,16,25.90
2015,06,30,14,17,25.90
2015,06,30,14,18,25.90
2015,06,30,14,19,25.90
2015,06,30,14,20,25.90
2015,06,30,14,21,25.90
2015,06,30,14,22,26.00
2015,06,30,14,23,26.00
2015,06,30,14,24,25.90
2015,06,30,14,25,25.90
2015,06,30,14,26,25.90
2015,06,30,14,27,25.90
2015,06,30,14,28,25.90
2015,06,30,14,29,25.90
2015,06,30,14,30,25.90
2015,06,30,14,31,25.90
2015,06,30,14,32,25.90
2015,06,30,14,33,26.00
2015,06,30,14,34,26.00
2015,06,30,14,35,25.90
2015,06,30,14,36,25.90
2015,06,30,14,37,25.90
2015,06,30,14,38,25.90
2015,06,30,14,39,25.80
2015,06,30,14,40,25.80
2015,06,30,14,41,25.80
2015,06,30,14,42,25.80
2015,06,30,14,43,25.80
2015,06,30,14,44,25.90
2015,06,30,14,45,25.90
2015,06,30,14,46,25.90
2015,06,30,14,47,25.90
2015,06,30,14,48,26.00
2015,06,30,14,49,25.90
2015,06,30,14,50,25.90
2015,06,30,14,51,25.90
2015,06,30,14,52,25.90
2015,06,30,14,53,25.90
2015,06,30,14,54,26.00
2015,06,30,14,55,26.10
2015,06,30,14,56,26.10
2015,06,30,14,57,26.10
2015,06,30,14,58,26.20
2015,06,30,14,59,26.20
2015,06,30,15,00,26.20
2015,06,30,15,01,26.20
2015,06,30,15,02,26.20
2015,06,30,15,03,26.20
2015,06,30,15,04,26.20
2015,06,30,15,05,26.30
2015,06,30,15,06,26.30
2015,06,30,15,07,26.40
2015,06,30,15,08,26.50
2015,06,30,15,09,26.60
2015,06,30,15,10,26.60
2015,06,30,15,11,26.60
2015,06,30,15,12,26.70
2015,06,30,15,13,26.80
2015,06,30,15,14,26.80
2015,06,30,15,15,26.80
2015,06,30,15,16,26.80
2015,06,30,15,17,26.90
2015,06,30,15,18,27.00
2015,06,30,15,19,27.00
2015,06,30,15,20,27.10
2015,06,30,15,21,27.20
2015,06,30,15,22,27.20
2015,06,30,15,23,27.30
2015,06,30,15,24,27.40
2015,06,30,15,25,27.40
2015,06,30,15,26,27.40
2015,06,30,15,27,27.30
2015,06,30,15,28,27.30
2015,06,30,15,29,27.30
2015,06,30,15,30,27.20
2015,06,30,15,31,27.10
2015,06,30,15,32,27.10
2015,06,30,15,33,27.10
2015,06,30,15,34,27.10
2015,06,30,15,35,27.10
2015,06,30,15,36,27.10
2015,06,30,15,37,27.20
2015,06,30,15,38,27.30
2015,06,30,15,39,27.30
2015,06,30,15,40,27.40
2015,06,30,15,41,27.40
2015,06,30,15,42,27.30
2015,06,30,15,43,27.30
2015,06,30,15,44,27.30
2015,06,30,15,45,27.30
2015,06,30,15,46,27.30
2015,06,30,15,47,27.30
2015,06,30,15,48,27.30
2015,06,30,15,49,27.30
2015,06,30,15,50,27.20
2015,06,30,15,51,27.30
2015,06,30,15,52,27.30
2015,06,30,15,53,27.50
2015,06,30,15,54,27.60
2015,06,30,15,55,27.70
2015,06,30,15,56,27.80
2015,06,30,15,57,27.80
2015,06,30,15,58,27.90
2015,06,30,15,59,27.80
2015,06,30,16,00,27.70
2015,06,30,16,01,27.60
2015,06,30,16,02,27.50
2015,06,30,16,03,27.50
2015,06,30,16,04,27.40
2015,06,30,16,05,27.40
2015,06,30,16,06,27.30
2015,06,30,16,07,27.30
2015,06,30,16,08,27.30
2015,06,30,16,09,27.30
2015,06,30,16,10,27.30
2015,06,30,16,11,27.40
2015,06,30,16,12,27.30
2015,06,30,16,13,27.20
2015,06,30,16,14,27.10
2015,06,30,16,15,27.10
2015,06,30,16,16,27.00
2015,06,30,16,17,27.00
2015,06,30,16,18,27.00
2015,06,30,16,19,26.90
2015,06,30,16,20,26.90
2015,06,30,16,21,26.90
2015,06,30,16,22,26.80
2015,06,30,16,23,26.80
2015,06,30,16,24,26.80
2015,06,30,16,25,26.90
2015,06,30,16,26,26.90
2015,06,30,16,27,26.90
2015,06,30,16,28,26.90
2015,06,30,16,29,27.00
2015,06,30,16,30,27.10
2015,06,30,16,31,27.10
2015,06,30,16,32,27.10
2015,06,30,16,33,27.00
2015,06,30,16,34,27.00
2015,06,30,16,35,27.00
2015,06,30,16,36,26.90
2015,06,30,16,37,26.90
2015,06,30,16,38,26.80
2015,06,30,16,39,26.80
2015,06,30,16,40,26.80
2015,06,30,16,41,26.80
2015,06,30,16,42,26.80
2015,06,30,16,43,26.80
2015,06,30,16,44,26.80
2015,06,30,16,45,26.80
2015,06,30,16,46,26.80
2015,06,30,16,47,26.70
2015,06,30,16,48,26.70
2015,06,30,16,49,26.70
2015,06,30,16,50,26.80
2015,06,30,16,51,26.80
2015,06,30,16,52,26.80
2015,06,30,16,53,26.80
2015,06,30,16,54,26.90
2015,06,30,16,55,26.80
2015,06,30,16,56,26.80
2015,06,30,16,57,26.80
2015,06,30,16,58,26.90
2015,06,30,16,59,26.90
2015,06,30,17,00,27.00
2015,06,30,17,01,27.00
2015,06,30,17,02,27.00
2015,06,30,17,03,27.10
2015,06,30,17,04,27.20
2015,06,30,17,05,27.20
2015,06,30,17,06,27.30
2015,06,30,17,07,27.30
2015,06,30,17,08,27.40
2015,06,30,17,09,27.50
2015,06,30,17,10,27.60
2015,06,30,17,11,27.70
2015,06,30,17,12,27.70
2015,06,30,17,13,27.80
2015,06,30,17,14,27.80
2015,06,30,17,15,27.80
2015,06,30,17,16,27.90
2015,06,30,17,17,27.90
2015,06,30,17,18,27.90
2015,06,30,17,19,27.90
2015,06,30,17,20,27.80
2015,06,30,17,21,27.70
2015,06,30,17,22,27.70
2015,06,30,17,23,27.70